User: anonymous   Login
Location: Unspecified
(0.0000°N, 0.0000°E)
Time: 03:14:41
(UTC+02:00)
Language:

AO-40 - Orbit

View from above orbital plane
View from above orbital plane
View from above satellite
View from above satellite

Ground track
Ground track

The orbit data is extracted from the following two-line orbital elements,

1 26609U 00072B   17143.18332585 +.00000021 +00000-0 +00000-0 0  9996
2 26609 006.3420 225.3440 7932783 119.1288 339.6541 01.25586892076032
Epoch (UTC): 23 May 2017 04:23:59
Eccentricity: 0.7932783
inclination: 6.3420°
perigee height: 1123 km
apogee height: 58697 km
right ascension of ascending node: 225.3440°
argument of perigee: 119.1288°
revolutions per day: 1.25586892
mean anomaly at epoch: 339.6541°
orbit number at epoch: 7603

The dashed part of the orbit path shows where the satellite is in the earth's shadow,  

DLR